[[{"header":{"parameterUnit":"m.s-1","parameterCategory":1,"la1":30.2991,"la2":30.254,"lo1":-89.0895,"lo2":-89.0444,"dy":0.0017,"dx":0.0017,"nx":28,"ny":28,"refTime":"2024-09-26T03:00:00:Z","depth":0,"parameterNumber":2,"parameterNumberName":"U-component_of_WINDS"},"data":[0,0,0,0,0,0,0,0,0,0,0,0,0,0,0,0,0,0,0,0,0,0,0,0,0,0,0,0,0,0,0,0,0,0,0,0,0,0,0,0,0,0,0,0,0,0,0,0,0,0,0,0,0,0,0,0,0,0,6.5606,6.5609,0,6.5802,6.5804,6.5807,6.5754,6.575,6.5746,6.5742,6.5943,6.5952,6.5961,0,0,0,0,0,0,0,0,0,0,0,0,0,6.5188,6.5196,6.5606,6.5609,6.5611,6.5802,6.5805,6.5807,6.5754,6.5749,6.5745,6.574,6.594,6.5951,6.5962,0,0,0,0,0,0,0,0,0,0,0,0,0,6.5375,6.5198,6.5606,6.5608,6.561,6.5801,6.5805,6.5808,6.5755,6.5749,6.5743,6.5738,6.5937,6.595,6.5963,6.6165,0,0,6.6005,6.601,0,0,0,0,0,0,0,0,6.5365,6.5391,6.5605,6.5608,6.5611,6.5747,6.5731,6.5928,6.5757,6.57,6.5742,6.5735,6.5883,6.59,6.595,6.6174,6.6183,6.6006,6.6014,6.602,6.6024,0,0,0,0,0,0,0,6.5352,6.5382,6.5684,6.5608,6.5612,6.5599,6.5619,6.5768,6.5822,6.5705,6.5701,6.5725,6.5883,6.5937,6.5954,6.6186,6.6005,6.6017,6.6026,6.6031,6.6587,6.6593,0,0,0,0,0,0,6.5336,6.5371,6.5677,6.569,6.5471,6.5612,6.5634,6.5709,6.582,6.5832,6.573,6.5722,6.5917,6.5939,6.5961,6.6205,6.602,6.6032,6.604,6.658,6.6588,6.6595,0,0,0,0,0,0,6.5328,6.5364,6.567,6.553,6.5568,6.5625,6.571,6.5716,6.577,6.584,6.5849,6.5775,6.5913,6.5942,6.6115,6.6211,6.6038,6.6051,6.6572,6.6583,6.6592,6.6694,0,0,0,0,0,0,6.5316,6.5361,6.5438,6.5532,6.5575,6.582,6.5716,6.5725,6.5794,6.5785,6.5884,6.5895,6.5911,6.6095,6.6128,6.6227,6.6061,6.6564,6.6577,6.6589,6.6683,6.6707,6.6727,0,0,0,0,0,6.5301,6.5459,6.5442,6.548,6.5673,6.5825,6.585,6.5865,6.5802,6.588,6.5924,6.5892,6.6196,6.6113,6.615,6.6254,6.6558,6.6573,6.6588,6.6673,6.6702,6.6727,0,0,0,0,0,0,6.5376,6.5472,6.5454,6.5647,6.5729,6.5816,6.5915,6.5895,6.5996,6.5984,6.5998,6.6021,6.6198,6.6243,6.615,6.6456,6.6368,6.6391,6.642,6.6448,6.647,6.6455,6.6073,0,0,0,0,0,6.5414,6.553,6.5608,6.5771,6.5813,6.5857,6.5924,6.5929,6.6013,6.6048,6.6105,6.6189,6.6303,6.6378,6.6487,6.6689,6.671,6.6779,6.6802,6.682,6.6839,6.695,6.6982,6.6644,6.6644,6.6644,0,0,6.5496,6.5563,6.5635,6.5788,6.5851,6.5971,6.5886,6.6017,6.6106,6.6067,6.6234,6.6279,6.6374,6.6562,6.6648,6.6606,6.6937,6.6839,6.6852,6.6862,6.6969,6.7001,6.7029,6.6654,6.6653,6.6651,0,0,6.5706,6.5768,6.5911,6.5976,6.6074,6.6102,6.6137,6.6228,6.6257,6.6424,6.6398,6.6505,6.6701,6.677,6.6831,6.7068,6.7042,6.7103,6.7219,6.7327,6.7354,6.7377,6.7462,6.7493,6.7123,6.7123,6.7123,0,6.5794,6.5974,6.5986,6.612,6.6188,6.6159,6.6304,6.6367,6.6496,6.6544,6.6494,6.6741,6.6803,6.7007,6.7065,6.7115,6.7155,6.7092,6.7349,6.7373,6.7395,6.7476,6.7508,6.713,6.7129,6.7128,6.7128,0,6.6079,6.6204,6.6307,6.6432,6.6512,6.6651,6.6685,6.6764,6.6762,6.6796,6.6968,6.7041,6.7164,6.7213,6.7213,6.7419,6.7389,6.7345,6.7256,6.7434,6.751,6.7541,6.7139,6.7137,6.7135,6.7133,0,0,6.634,6.647,6.6508,6.6564,6.6671,6.6768,6.6905,6.7026,6.7094,6.7184,6.73,6.7468,6.7428,6.7497,6.7504,6.7599,6.7782,6.7542,6.7545,6.7584,6.8014,6.8046,6.8082,6.7766,6.7772,6.7777,6.8006,0,6.6558,6.68,6.6816,6.7035,6.7151,6.7126,6.7246,6.7324,6.736,6.7464,6.7504,6.7622,6.756,6.7602,6.7695,6.774,6.7869,6.7724,6.7874,6.788,6.7851,6.8122,6.8157,6.8369,6.8036,6.8041,6.8045,0,6.6845,6.6944,6.7175,6.7265,6.7314,6.7422,6.7534,6.7634,6.7723,6.7742,6.782,6.7814,6.7956,6.7863,6.8059,6.796,6.8023,6.8055,6.8064,6.8078,6.7972,6.8143,6.8437,6.8469,6.8092,6.8088,6.8085,0,6.7013,6.7203,6.7366,6.7415,6.7524,6.7601,6.765,6.7733,6.7805,6.7904,6.795,6.8065,6.8127,6.8216,6.8241,6.8171,6.8437,6.8346,6.8457,6.8457,6.8514,6.851,6.8822,6.8555,6.8555,6.8554,6.8553,0,6.7255,6.7397,6.7442,6.7542,6.7701,6.7718,6.7875,6.792,6.7994,6.8103,6.8088,6.8191,6.8218,6.8326,6.8347,6.8506,6.8534,6.8554,6.8558,6.8556,6.8553,6.8596,6.8582,6.8563,6.8561,6.8559,6.8558,0,6.7468,6.7504,6.768,6.7769,6.7795,6.7908,6.7985,6.8081,6.8116,6.8253,6.8287,6.8341,6.8467,6.8501,6.8652,6.8666,6.8854,6.8844,6.8824,6.8823,6.8933,6.8922,6.9283,6.9331,6.9034,6.9037,6.9039,0,6.762,6.7728,6.783,6.7901,6.7954,6.807,6.8143,6.8165,6.8242,6.8352,6.8436,6.856,6.866,6.8863,6.8916,6.9032,6.9025,6.9144,6.9042,6.9036,6.9026,6.9019,6.903,6.9162,6.9166,6.9168,6.917,0,6.7886,6.7898,6.8004,6.8118,6.8206,6.8296,6.8383,6.8442,6.8477,6.8564,6.8693,6.8771,6.8926,6.9049,6.9167,6.9218,6.9201,6.9202,6.9234,6.9232,6.9215,6.9225,6.8876,6.9193,6.9191,6.9189,6.9188,6.9187,6.8073,6.8168,6.8255,6.8374,6.8441,6.8523,6.8618,6.8664,6.8772,6.8899,6.8906,6.9046,6.9133,6.9288,6.9346,6.9456,6.9421,6.9467,6.9479,6.949,6.9499,6.9199,6.9478,6.9477,6.9477,6.9476,6.9476,0,6.8337,6.8392,6.8501,6.8623,6.8717,6.8692,6.8787,6.8867,6.8991,6.9073,6.9173,6.9321,6.9441,6.9504,6.9624,6.97,6.9695,6.9731,6.9725,6.9737,6.9524,6.9484,6.9733,6.9733,6.9733,6.9733,6.9733,6.9732,6.8486,6.8646,6.867,6.8864,6.8917,6.9054,6.911,6.9186,6.9252,6.9418,6.9518,6.9558,6.9633,6.9758,6.9868,6.9883,6.9928,6.9968,6.9979,6.9778,6.9752,6.9727,6.969,6.9978,6.9978,7.0183,7.0185,7.0187]},{"header":{"parameterUnit":"m.s-1","parameterCategory":1,"la1":30.2991,"la2":30.254,"lo1":-89.0895,"lo2":-89.0444,"dy":0.0017,"dx":0.0017,"nx":28,"ny":28,"refTime":"2024-09-26T03:00:00:Z","depth":0,"parameterNumber":3,"parameterNumberName":"V-component_of_WINDS"},"data":[0,0,0,0,0,0,0,0,0,0,0,0,0,0,0,0,0,0,0,0,0,0,0,0,0,0,0,0,0,0,0,0,0,0,0,0,0,0,0,0,0,0,0,0,0,0,0,0,0,0,0,0,0,0,0,0,0,0,-3.6196,-3.6198,0,-3.6344,-3.6345,-3.6347,-3.6331,-3.6329,-3.6327,-3.6324,-3.6479,-3.6485,-3.6491,0,0,0,0,0,0,0,0,0,0,0,0,0,-3.5905,-3.591,-3.6196,-3.6198,-3.62,-3.6344,-3.6346,-3.6348,-3.6332,-3.6329,-3.6326,-3.6323,-3.6477,-3.6484,-3.6492,0,0,0,0,0,0,0,0,0,0,0,0,0,-3.604,-3.5912,-3.6196,-3.6209,-3.6212,-3.6343,-3.6346,-3.6348,-3.6332,-3.6329,-3.6325,-3.6322,-3.6475,-3.6484,-3.6493,-3.6622,0,0,-3.6522,-3.6526,0,0,0,0,0,0,0,0,-3.6032,-3.6051,-3.6205,-3.6209,-3.6212,-3.6315,-3.6299,-3.644,-3.6333,-3.6287,-3.6324,-3.632,-3.6428,-3.6441,-3.6476,-3.6629,-3.6635,-3.6523,-3.6528,-3.6532,-3.6535,0,0,0,0,0,0,0,-3.6023,-3.6044,-3.6255,-3.6208,-3.6212,-3.6209,-3.6224,-3.6326,-3.6375,-3.6291,-3.629,-3.6307,-3.6429,-3.6467,-3.648,-3.6638,-3.6522,-3.6531,-3.6537,-3.654,-3.6904,-3.6908,0,0,0,0,0,0,-3.601,-3.6037,-3.625,-3.6259,-3.6111,-3.6217,-3.6234,-3.6286,-3.6374,-3.6384,-3.631,-3.6306,-3.6453,-3.6469,-3.6485,-3.6642,-3.6532,-3.6541,-3.6547,-3.69,-3.6905,-3.691,0,0,0,0,0,0,-3.6004,-3.6029,-3.6244,-3.6148,-3.6175,-3.6226,-3.6284,-3.6291,-3.6329,-3.6389,-3.6398,-3.634,-3.6451,-3.6472,-3.6588,-3.6647,-3.6546,-3.6554,-3.6896,-3.6902,-3.6908,-3.6957,0,0,0,0,0,0,-3.5995,-3.6027,-3.6075,-3.6149,-3.618,-3.6343,-3.6288,-3.6296,-3.6345,-3.6341,-3.6419,-3.6429,-3.645,-3.6574,-3.6597,-3.6658,-3.6561,-3.6891,-3.6899,-3.6906,-3.695,-3.6964,-3.6975,0,0,0,0,0,-3.5985,-3.6084,-3.6078,-3.6104,-3.6241,-3.6347,-3.6365,-3.6385,-3.635,-3.6399,-3.6438,-3.6426,-3.6637,-3.6586,-3.6612,-3.6677,-3.6887,-3.6896,-3.6905,-3.6944,-3.6961,-3.6975,0,0,0,0,0,0,-3.6017,-3.6094,-3.6088,-3.6213,-3.6273,-3.6344,-3.6407,-3.6402,-3.6475,-3.6468,-3.6492,-3.651,-3.6627,-3.6663,-3.6605,-3.6807,-3.6757,-3.6772,-3.6778,-3.6795,-3.6807,-3.6796,-3.6569,0,0,0,0,0,-3.6038,-3.6116,-3.6179,-3.6284,-3.6314,-3.6356,-3.6402,-3.6413,-3.6477,-3.6502,-3.6549,-3.6613,-3.6693,-3.6746,-3.6823,-3.6955,-3.6973,-3.7013,-3.7026,-3.7036,-3.7048,-3.7122,-3.7141,-3.6939,-3.6939,-3.6939,0,0,-3.6084,-3.6135,-3.6183,-3.6292,-3.6339,-3.6421,-3.6377,-3.6465,-3.6526,-3.6516,-3.6628,-3.6665,-3.6738,-3.6862,-3.692,-3.6897,-3.7108,-3.7047,-3.7055,-3.7062,-3.7133,-3.7152,-3.7169,-3.6945,-3.6944,-3.6943,0,0,-3.6208,-3.6254,-3.6347,-3.6396,-3.6468,-3.6495,-3.6518,-3.6589,-3.6613,-3.6726,-3.672,-3.6794,-3.6932,-3.6984,-3.7028,-3.7173,-3.7166,-3.7198,-3.7264,-3.7336,-3.7352,-3.7366,-3.7419,-3.7437,-3.721,-3.7211,-3.7211,0,-3.6256,-3.6377,-3.6395,-3.6484,-3.6533,-3.6526,-3.6621,-3.6668,-3.6763,-3.6797,-3.677,-3.6943,-3.6992,-3.7129,-3.7164,-3.72,-3.7228,-3.7189,-3.7348,-3.7362,-3.7376,-3.7426,-3.7446,-3.7214,-3.7214,-3.7213,-3.7213,0,-3.6432,-3.6516,-3.6583,-3.6673,-3.6729,-3.682,-3.6854,-3.6909,-3.6915,-3.6945,-3.7061,-3.7119,-3.7208,-3.7242,-3.7249,-3.7381,-3.7364,-3.7342,-3.7293,-3.7398,-3.7446,-3.7466,-3.7219,-3.7218,-3.7217,-3.7216,0,0,-3.6581,-3.668,-3.6705,-3.6746,-3.6826,-3.6892,-3.6984,-3.707,-3.7117,-3.7183,-3.7261,-3.7379,-3.7359,-3.741,-3.7423,-3.7486,-3.7598,-3.7456,-3.7458,-3.7481,-3.7748,-3.7765,-3.7787,-3.7593,-3.7597,-3.76,-3.7742,0,-3.6714,-3.6874,-3.6894,-3.7037,-3.7116,-3.7112,-3.7192,-3.7251,-3.7282,-3.7354,-3.7389,-3.7472,-3.7439,-3.747,-3.7531,-3.7571,-3.7652,-3.7561,-3.7668,-3.7672,-3.765,-3.7811,-3.7829,-3.796,-3.7761,-3.7764,-3.7767,0,-3.689,-3.696,-3.711,-3.718,-3.7214,-3.7285,-3.7367,-3.7435,-3.7503,-3.7521,-3.7578,-3.7583,-3.7679,-3.7626,-3.776,-3.7698,-3.7743,-3.7769,-3.7775,-3.7786,-3.7726,-3.7828,-3.8003,-3.8023,-3.7796,-3.7794,-3.7792,0,-3.6984,-3.7116,-3.7223,-3.7259,-3.7343,-3.7393,-3.7431,-3.7494,-3.7545,-3.7617,-3.765,-3.7732,-3.7778,-3.7842,-3.787,-3.7829,-3.8003,-3.7952,-3.8022,-3.8022,-3.806,-3.8057,-3.8245,-3.8088,-3.8087,-3.8087,-3.8087,0,-3.7131,-3.7224,-3.7267,-3.7333,-3.7437,-3.746,-3.7563,-3.7599,-3.7655,-3.773,-3.7731,-3.7801,-3.7834,-3.791,-3.7932,-3.8041,-3.8061,-3.808,-3.8085,-3.808,-3.8078,-3.811,-3.8102,-3.8092,-3.8091,-3.809,-3.8089,0,-3.7254,-3.7286,-3.7403,-3.7473,-3.7493,-3.7567,-3.7627,-3.7692,-3.7722,-3.7816,-3.784,-3.7888,-3.7977,-3.8011,-3.812,-3.8136,-3.8261,-3.8258,-3.8238,-3.824,-3.8308,-3.8302,-3.8524,-3.8555,-3.8377,-3.8378,-3.838,0,-3.7345,-3.7416,-3.7493,-3.7543,-3.7582,-3.7661,-3.7713,-3.7738,-3.7792,-3.7874,-3.793,-3.8018,-3.809,-3.8233,-3.8279,-3.8363,-3.8363,-3.8435,-3.8376,-3.8369,-3.8365,-3.8361,-3.8369,-3.8446,-3.8448,-3.845,-3.8451,0,-3.7505,-3.7518,-3.7591,-3.7671,-3.7732,-3.7797,-3.786,-3.79,-3.7935,-3.7997,-3.8087,-3.8143,-3.8254,-3.8342,-3.8429,-3.8469,-3.8467,-3.8469,-3.849,-3.8486,-3.8472,-3.8482,-3.8269,-3.8464,-3.8463,-3.8462,-3.8461,-3.8461,-3.7616,-3.7679,-3.7743,-3.7826,-3.7875,-3.7934,-3.7998,-3.8036,-3.8112,-3.8203,-3.8214,-3.8312,-3.8378,-3.8494,-3.8538,-3.8616,-3.8597,-3.8627,-3.8635,-3.8642,-3.8647,-3.8459,-3.8631,-3.8631,-3.8631,-3.8631,-3.863,0,-3.7777,-3.7817,-3.7893,-3.798,-3.8045,-3.8035,-3.8105,-3.816,-3.8246,-3.8307,-3.8378,-3.8483,-3.8569,-3.8621,-3.8708,-3.876,-3.8762,-3.8782,-3.8779,-3.8789,-3.8659,-3.8632,-3.878,-3.878,-3.878,-3.878,-3.878,-3.878,-3.7868,-3.7974,-3.7995,-3.8127,-3.8167,-3.8262,-3.8302,-3.8357,-3.8406,-3.8522,-3.8593,-3.8626,-3.8685,-3.8776,-3.8855,-3.8869,-3.8901,-3.8924,-3.8936,-3.8813,-3.8798,-3.8783,-3.8758,-3.893,-3.893,-3.906,-3.9061,-3.9062]}]]